Location: Lane
(33.5226°N, 79.8788°W)
Time: 11:45:58
(UTC+00:00)

Tiros 1 despin weight - Pass Details

Date: 07 October 2022
Orbit: 590 x 637 km, 48.2° (Epoch: 25 November)

Event Time Altitude Azimuth Distance (km) Brightness Sun altitude
Rises 01:52:13 0° 310° (NW) 2,890 ? -36.8°
Reaches altitude 10° 01:54:32 10° 312° (NW) 1,990 ? -37.2°
Enters shadow 01:55:10 14° 313° (NW) 1,747 ? -37.4°
Maximum altitude 01:59:06 72° 36° (NE) 661 - -38.1°
Drops below altitude 10° 02:03:44 10° 122° (ESE) 2,007 - -39.0°
Sets 02:06:04 0° 124° (SE) 2,917 - -39.5°
